Time,TemperatureF,DewpointF,PressureIn,WindDirection,WindDirectionDegrees,WindSpeedMPH,WindSpeedGustMPH,Humidity,HourlyPrecipIn,Conditions,Clouds,dailyrainin,SoftwareType,DateUTC
2013-09-26 00:00:00,53.2,45.5,29.86,NNW,329,0.0,5.0,75,0.00,,,0.00,Wunderground v.1.15,2013-09-26 07:00:00,
2013-09-26 00:05:00,53.1,45.4,29.86,NNW,329,0.0,5.0,75,0.00,,,0.00,Wunderground v.1.15,2013-09-26 07:05:00,
2013-09-26 00:15:00,52.9,45.5,29.86,WNW,298,0.0,2.0,76,0.00,,,0.00,Wunderground v.1.15,2013-09-26 07:15:00,
2013-09-26 00:20:00,52.7,45.3,29.86,WNW,298,0.0,1.0,76,0.00,,,0.00,Wunderground v.1.15,2013-09-26 07:20:00,
2013-09-26 00:25:00,52.5,45.2,29.86,WNW,298,0.0,2.0,76,0.00,,,0.00,Wunderground v.1.15,2013-09-26 07:25:00,
2013-09-26 00:30:00,52.4,45.4,29.86,WNW,284,0.0,1.0,77,0.00,,,0.00,Wunderground v.1.15,2013-09-26 07:30:00,
2013-09-26 00:40:00,52.3,45.3,29.86,WNW,285,0.0,1.0,77,0.00,,,0.00,Wunderground v.1.15,2013-09-26 07:40:00,
2013-09-26 00:45:00,52.1,45.1,29.86,WNW,285,0.0,1.0,77,0.00,,,0.00,Wunderground v.1.15,2013-09-26 07:45:00,
2013-09-26 00:50:00,52.0,45.4,29.85,WNW,285,0.0,1.0,78,0.00,,,0.00,Wunderground v.1.15,2013-09-26 07:50:00,
2013-09-26 00:55:00,52.0,45.4,29.85,WNW,301,0.0,1.0,78,0.00,,,0.00,Wunderground v.1.15,2013-09-26 07:55:00,
2013-09-26 01:00:00,52.3,45.3,29.86,NW,318,0.0,2.0,77,0.00,,,0.00,Wunderground v.1.15,2013-09-26 08:00:00,
2013-09-26 01:10:00,52.4,45.4,29.86,NW,311,0.0,4.0,77,0.00,,,0.00,Wunderground v.1.15,2013-09-26 08:10:00,
2013-09-26 01:15:00,52.3,45.3,29.86,WNW,292,0.0,4.0,77,0.00,,,0.00,Wunderground v.1.15,2013-09-26 08:15:00,
2013-09-26 01:20:00,52.1,45.1,29.86,WNW,284,0.0,1.0,77,0.00,,,0.00,Wunderground v.1.15,2013-09-26 08:20:00,
2013-09-26 01:25:00,52.0,45.0,29.86,WNW,282,0.0,3.0,77,0.00,,,0.00,Wunderground v.1.15,2013-09-26 08:25:00,
2013-09-26 01:35:00,51.7,45.1,29.86,WNW,295,0.0,1.0,78,0.00,,,0.00,Wunderground v.1.15,2013-09-26 08:35:00,
2013-09-26 01:40:00,51.6,45.0,29.86,WNW,295,0.0,2.0,78,0.00,,,0.00,Wunderground v.1.15,2013-09-26 08:40:00,
2013-09-26 01:45:00,51.6,45.0,29.86,NW,323,0.0,3.0,78,0.00,,,0.00,Wunderground v.1.15,2013-09-26 08:45:00,
2013-09-26 01:50:00,51.5,44.9,29.86,NW,323,0.0,1.0,78,0.00,,,0.00,Wunderground v.1.15,2013-09-26 08:50:00,
2013-09-26 01:55:00,51.3,45.0,29.86,NW,323,0.0,1.0,79,0.00,,,0.00,Wunderground v.1.15,2013-09-26 08:55:00,
2013-09-26 02:00:00,51.3,45.0,29.86,NW,323,0.0,1.0,79,0.00,,,0.00,Wunderground v.1.15,2013-09-26 09:00:00,
2013-09-26 02:05:00,51.2,44.9,29.86,NW,320,0.0,1.0,79,0.00,,,0.00,Wunderground v.1.15,2013-09-26 09:05:00,
2013-09-26 02:15:00,51.0,45.0,29.86,NW,321,0.0,3.0,80,0.00,,,0.00,Wunderground v.1.15,2013-09-26 09:15:00,
2013-09-26 02:20:00,50.8,44.9,29.86,NW,320,0.0,1.0,80,0.00,,,0.00,Wunderground v.1.15,2013-09-26 09:20:00,
2013-09-26 02:25:00,50.6,45.0,29.86,NW,321,0.0,1.0,81,0.00,,,0.00,Wunderground v.1.15,2013-09-26 09:25:00,
2013-09-26 02:30:00,50.5,44.9,29.87,NW,320,0.0,0.0,81,0.00,,,0.00,Wunderground v.1.15,2013-09-26 09:30:00,
2013-09-26 02:35:00,50.3,44.7,29.87,NW,320,0.0,1.0,81,0.00,,,0.00,Wunderground v.1.15,2013-09-26 09:35:00,
2013-09-26 02:40:00,50.3,44.7,29.87,NW,321,0.0,1.0,81,0.00,,,0.00,Wunderground v.1.15,2013-09-26 09:40:00,
2013-09-26 02:50:00,50.1,44.5,29.87,NW,321,0.0,1.0,81,0.00,,,0.00,Wunderground v.1.15,2013-09-26 09:50:00,
2013-09-26 02:55:00,50.0,44.4,29.87,NW,321,0.0,1.0,81,0.00,,,0.00,Wunderground v.1.15,2013-09-26 09:55:00,
2013-09-26 03:00:00,49.9,44.3,29.87,NW,320,0.0,2.0,81,0.00,,,0.00,Wunderground v.1.15,2013-09-26 10:00:00,
2013-09-26 03:05:00,49.9,44.3,29.87,NW,320,0.0,2.0,81,0.00,,,0.00,Wunderground v.1.15,2013-09-26 10:05:00,
2013-09-26 03:15:00,49.8,44.2,29.87,NW,320,0.0,1.0,81,0.00,,,0.00,Wunderground v.1.15,2013-09-26 10:15:00,
2013-09-26 03:20:00,49.9,44.3,29.87,NW,321,0.0,1.0,81,0.00,,,0.00,Wunderground v.1.15,2013-09-26 10:20:00,
2013-09-26 03:25:00,49.9,44.3,29.87,NW,325,0.0,2.0,81,0.00,,,0.00,Wunderground v.1.15,2013-09-26 10:25:00,
2013-09-26 03:35:00,49.8,43.9,29.87,NW,323,0.0,4.0,80,0.00,,,0.00,Wunderground v.1.15,2013-09-26 10:35:00,
2013-09-26 03:40:00,49.7,44.1,29.87,WNW,298,0.0,6.0,81,0.00,,,0.00,Wunderground v.1.15,2013-09-26 10:40:00,
2013-09-26 03:45:00,49.6,44.0,29.87,WNW,289,0.0,6.0,81,0.00,,,0.00,Wunderground v.1.15,2013-09-26 10:45:00,
2013-09-26 03:50:00,49.7,43.8,29.87,NW,317,0.0,4.0,80,0.00,,,0.00,Wunderground v.1.15,2013-09-26 10:50:00,
2013-09-26 04:00:00,49.7,43.8,29.87,WNW,299,0.0,6.0,80,0.00,,,0.00,Wunderground v.1.15,2013-09-26 11:00:00,
2013-09-26 04:05:00,49.7,43.8,29.87,NW,306,0.0,6.0,80,0.00,,,0.00,Wunderground v.1.15,2013-09-26 11:05:00,
2013-09-26 04:10:00,49.7,43.5,29.87,West,275,0.0,3.0,79,0.00,,,0.00,Wunderground v.1.15,2013-09-26 11:10:00,
2013-09-26 04:15:00,49.5,43.6,29.87,WNW,296,0.0,3.0,80,0.00,,,0.00,Wunderground v.1.15,2013-09-26 11:15:00,
2013-09-26 04:25:00,49.4,43.5,29.87,West,281,0.0,4.0,80,0.00,,,0.00,Wunderground v.1.15,2013-09-26 11:25:00,
2013-09-26 04:30:00,49.3,43.4,29.87,WNW,294,0.0,1.0,80,0.00,,,0.00,Wunderground v.1.15,2013-09-26 11:30:00,
2013-09-26 04:35:00,49.1,43.2,29.87,WNW,294,0.0,2.0,80,0.00,,,0.00,Wunderground v.1.15,2013-09-26 11:35:00,
2013-09-26 04:45:00,48.8,43.2,29.87,NW,323,0.0,2.0,81,0.00,,,0.00,Wunderground v.1.15,2013-09-26 11:45:00,
2013-09-26 04:50:00,49.0,43.4,29.87,NW,307,0.0,6.0,81,0.00,,,0.00,Wunderground v.1.15,2013-09-26 11:50:00,
2013-09-26 04:55:00,49.0,43.4,29.87,West,273,0.0,6.0,81,0.00,,,0.00,Wunderground v.1.15,2013-09-26 11:55:00,
2013-09-26 05:05:00,48.8,43.2,29.88,West,275,0.0,2.0,81,0.00,,,0.00,Wunderground v.1.15,2013-09-26 12:05:00,
2013-09-26 05:10:00,48.8,43.2,29.88,West,275,0.0,2.0,81,0.00,,,0.00,Wunderground v.1.15,2013-09-26 12:10:00,
2013-09-26 05:15:00,48.8,43.2,29.88,West,274,0.0,2.0,81,0.00,,,0.00,Wunderground v.1.15,2013-09-26 12:15:00,
2013-09-26 05:20:00,48.8,43.2,29.88,WNW,296,0.0,2.0,81,0.00,,,0.00,Wunderground v.1.15,2013-09-26 12:20:00,
2013-09-26 05:25:00,48.9,43.3,29.88,WNW,298,0.0,2.0,81,0.00,,,0.00,Wunderground v.1.15,2013-09-26 12:25:00,
2013-09-26 05:30:00,48.9,43.3,29.88,NW,304,0.0,3.0,81,0.00,,,0.00,Wunderground v.1.15,2013-09-26 12:30:00,
2013-09-26 05:35:00,48.9,43.3,29.88,West,276,0.0,3.0,81,0.00,,,0.00,Wunderground v.1.15,2013-09-26 12:35:00,
2013-09-26 05:45:00,48.8,43.5,29.88,WNW,300,1.0,4.0,82,0.00,,,0.00,Wunderground v.1.15,2013-09-26 12:45:00,
2013-09-26 05:50:00,48.7,43.5,29.88,WNW,293,0.0,3.0,82,0.00,,,0.00,Wunderground v.1.15,2013-09-26 12:50:00,
2013-09-26 05:55:00,48.5,43.3,29.89,WNW,292,0.0,3.0,82,0.00,,,0.00,Wunderground v.1.15,2013-09-26 12:55:00,
2013-09-26 06:00:00,48.3,43.4,29.88,NW,312,0.0,2.0,83,0.00,,,0.00,Wunderground v.1.15,2013-09-26 13:00:00,
2013-09-26 06:05:00,48.2,43.3,29.88,WNW,301,0.0,3.0,83,0.00,,,0.00,Wunderground v.1.15,2013-09-26 13:05:00,
2013-09-26 06:10:00,48.1,43.2,29.89,WNW,301,0.0,4.0,83,0.00,,,0.00,Wunderground v.1.15,2013-09-26 13:10:00,
2013-09-26 06:20:00,47.8,43.2,29.89,WNW,300,0.0,1.0,84,0.00,,,0.00,Wunderground v.1.15,2013-09-26 13:20:00,
2013-09-26 06:25:00,47.7,43.1,29.89,NW,306,0.0,2.0,84,0.00,,,0.00,Wunderground v.1.15,2013-09-26 13:25:00,
2013-09-26 06:30:00,47.6,43.3,29.89,NW,306,0.0,1.0,85,0.00,,,0.00,Wunderground v.1.15,2013-09-26 13:30:00,
2013-09-26 06:35:00,47.4,43.1,29.89,NW,306,0.0,1.0,85,0.00,,,0.00,Wunderground v.1.15,2013-09-26 13:35:00,
2013-09-26 06:40:00,47.3,43.0,29.89,NW,306,0.0,1.0,85,0.00,,,0.00,Wunderground v.1.15,2013-09-26 13:40:00,
2013-09-26 06:50:00,47.1,42.8,29.89,NW,306,0.0,1.0,85,0.00,,,0.00,Wunderground v.1.15,2013-09-26 13:50:00,
2013-09-26 06:55:00,47.0,42.7,29.89,NW,313,0.0,2.0,85,0.00,,,0.00,Wunderground v.1.15,2013-09-26 13:55:00,
2013-09-26 07:00:00,47.3,43.0,29.89,NW,318,1.0,2.0,85,0.00,,,0.00,Wunderground v.1.15,2013-09-26 14:00:00,
2013-09-26 07:05:00,47.5,43.2,29.90,NW,318,1.0,4.0,85,0.00,,,0.00,Wunderground v.1.15,2013-09-26 14:05:00,
2013-09-26 07:10:00,47.8,43.2,29.90,NW,318,1.0,1.0,84,0.00,,,0.00,Wunderground v.1.15,2013-09-26 14:10:00,
2013-09-26 07:15:00,47.8,43.2,29.90,NW,318,0.0,2.0,84,0.00,,,0.00,Wunderground v.1.15,2013-09-26 14:15:00,
2013-09-26 07:20:00,48.0,43.4,29.90,NW,318,0.0,1.0,84,0.00,,,0.00,Wunderground v.1.15,2013-09-26 14:20:00,
2013-09-26 07:30:00,48.7,43.8,29.91,NW,309,0.0,2.0,83,0.00,,,0.00,Wunderground v.1.15,2013-09-26 14:30:00,
2013-09-26 07:35:00,49.3,44.0,29.91,WNW,294,0.0,5.0,82,0.00,,,0.00,Wunderground v.1.15,2013-09-26 14:35:00,
2013-09-26 07:40:00,49.6,44.0,29.91,NW,317,0.0,2.0,81,0.00,,,0.00,Wunderground v.1.15,2013-09-26 14:40:00,
2013-09-26 07:45:00,50.0,44.1,29.91,WNW,303,0.0,2.0,80,0.00,,,0.00,Wunderground v.1.15,2013-09-26 14:45:00,
2013-09-26 07:50:00,50.2,44.3,29.91,WNW,303,0.0,3.0,80,0.00,,,0.00,Wunderground v.1.15,2013-09-26 14:50:00,
2013-09-26 07:55:00,50.4,44.5,29.92,WNW,303,0.0,3.0,80,0.00,,,0.00,Wunderground v.1.15,2013-09-26 14:55:00,
2013-09-26 08:05:00,51.2,44.6,29.92,West,269,0.0,2.0,78,0.00,,,0.00,Wunderground v.1.15,2013-09-26 15:05:00,
2013-09-26 08:10:00,51.6,44.6,29.92,West,265,1.0,3.0,77,0.00,,,0.00,Wunderground v.1.15,2013-09-26 15:10:00,
2013-09-26 08:15:00,51.8,44.8,29.92,West,271,1.0,3.0,77,0.00,,,0.00,Wunderground v.1.15,2013-09-26 15:15:00,
2013-09-26 08:20:00,52.1,45.1,29.92,WNW,294,1.0,1.0,77,0.00,,,0.00,Wunderground v.1.15,2013-09-26 15:20:00,
2013-09-26 08:25:00,52.5,45.2,29.92,WNW,290,0.0,2.0,76,0.00,,,0.00,Wunderground v.1.15,2013-09-26 15:25:00,
2013-09-26 08:35:00,52.8,44.7,29.93,WNW,282,1.0,4.0,74,0.00,,,0.00,Wunderground v.1.15,2013-09-26 15:35:00,
2013-09-26 08:40:00,53.0,44.6,29.93,WNW,296,1.0,1.0,73,0.00,,,0.00,Wunderground v.1.15,2013-09-26 15:40:00,
2013-09-26 08:45:00,53.3,44.5,29.93,West,279,2.0,2.0,72,0.00,,,0.00,Wunderground v.1.15,2013-09-26 15:45:00,
2013-09-26 08:50:00,53.5,44.7,29.93,West,259,2.0,2.0,72,0.00,,,0.00,Wunderground v.1.15,2013-09-26 15:50:00,
2013-09-26 08:55:00,53.8,44.6,29.93,WSW,258,1.0,5.0,71,0.00,,,0.00,Wunderground v.1.15,2013-09-26 15:55:00,
2013-09-26 09:00:00,54.2,44.6,29.94,NW,313,1.0,1.0,70,0.00,,,0.00,Wunderground v.1.15,2013-09-26 16:00:00,
2013-09-26 09:05:00,54.7,44.3,29.94,WNW,291,1.0,2.0,68,0.00,,,0.00,Wunderground v.1.15,2013-09-26 16:05:00,
2013-09-26 09:10:00,55.1,44.7,29.94,WNW,294,1.0,1.0,68,0.00,,,0.00,Wunderground v.1.15,2013-09-26 16:10:00,
2013-09-26 09:15:00,55.4,45.0,29.94,WNW,288,1.0,5.0,68,0.00,,,0.00,Wunderground v.1.15,2013-09-26 16:15:00,
2013-09-26 09:25:00,56.2,45.4,29.95,NW,310,1.0,5.0,67,0.00,,,0.00,Wunderground v.1.15,2013-09-26 16:25:00,
2013-09-26 09:30:00,56.6,45.0,29.95,NNW,332,1.0,7.0,65,0.00,,,0.00,Wunderground v.1.15,2013-09-26 16:30:00,
2013-09-26 09:35:00,57.0,44.5,29.95,South,170,2.0,7.0,63,0.00,,,0.00,Wunderground v.1.15,2013-09-26 16:35:00,
2013-09-26 09:40:00,57.3,44.4,29.95,NNW,332,2.0,2.0,62,0.00,,,0.00,Wunderground v.1.15,2013-09-26 16:40:00,
2013-09-26 09:45:00,58.0,44.2,29.95,WNW,290,2.0,3.0,60,0.00,,,0.00,Wunderground v.1.15,2013-09-26 16:45:00,
2013-09-26 09:50:00,58.4,44.1,29.95,WNW,298,2.0,2.0,59,0.00,,,0.00,Wunderground v.1.15,2013-09-26 16:50:00,
2013-09-26 09:55:00,59.0,43.3,29.95,WNW,298,1.0,4.0,56,0.00,,,0.00,Wunderground v.1.15,2013-09-26 16:55:00,
2013-09-26 10:00:00,59.3,43.1,29.95,West,260,1.0,1.0,55,0.00,,,0.00,Wunderground v.1.15,2013-09-26 17:00:00,
2013-09-26 10:05:00,59.5,43.3,29.95,SSW,211,2.0,2.0,55,0.00,,,0.00,Wunderground v.1.15,2013-09-26 17:05:00,
2013-09-26 10:10:00,60.0,43.3,29.95,NNW,327,1.0,1.0,54,0.00,,,0.00,Wunderground v.1.15,2013-09-26 17:10:00,
2013-09-26 10:15:00,60.2,43.0,29.95,WSW,253,1.0,10.0,53,0.00,,,0.00,Wunderground v.1.15,2013-09-26 17:15:00,
2013-09-26 10:20:00,60.8,43.6,29.95,West,260,1.0,1.0,53,0.00,,,0.00,Wunderground v.1.15,2013-09-26 17:20:00,
2013-09-26 10:25:00,61.4,43.6,29.95,SSE,147,1.0,6.0,52,0.00,,,0.00,Wunderground v.1.15,2013-09-26 17:25:00,
2013-09-26 10:35:00,62.3,42.9,29.95,West,259,1.0,8.0,49,0.00,,,0.00,Wunderground v.1.15,2013-09-26 17:35:00,
2013-09-26 10:40:00,62.9,42.4,29.95,West,276,1.0,1.0,47,0.00,,,0.00,Wunderground v.1.15,2013-09-26 17:40:00,
2013-09-26 10:45:00,63.3,41.0,29.95,West,280,1.0,8.0,44,0.00,,,0.00,Wunderground v.1.15,2013-09-26 17:45:00,
2013-09-26 10:50:00,63.8,42.0,29.95,WNW,295,1.0,1.0,45,0.00,,,0.00,Wunderground v.1.15,2013-09-26 17:50:00,
2013-09-26 10:55:00,64.7,41.7,29.95,NNW,342,1.0,5.0,43,0.00,,,0.00,Wunderground v.1.15,2013-09-26 17:55:00,
2013-09-26 11:00:00,64.7,40.4,29.95,South,184,2.0,2.0,41,0.00,,,0.00,Wunderground v.1.15,2013-09-26 18:00:00,
2013-09-26 11:05:00,64.2,40.0,29.95,WNW,286,3.0,3.0,41,0.00,,,0.00,Wunderground v.1.15,2013-09-26 18:05:00,
2013-09-26 11:10:00,64.4,39.5,29.95,SW,236,3.0,3.0,40,0.00,,,0.00,Wunderground v.1.15,2013-09-26 18:10:00,
2013-09-26 11:20:00,65.0,40.1,29.95,East,90,1.0,5.0,40,0.00,,,0.00,Wunderground v.1.15,2013-09-26 18:20:00,
2013-09-26 11:25:00,65.8,40.1,29.95,WNW,302,1.0,5.0,39,0.00,,,0.00,Wunderground v.1.15,2013-09-26 18:25:00,
2013-09-26 11:30:00,65.7,39.4,29.95,NNW,327,1.0,12.0,38,0.00,,,0.00,Wunderground v.1.15,2013-09-26 18:30:00,
2013-09-26 11:35:00,65.5,39.9,29.95,NNE,12,2.0,12.0,39,0.00,,,0.00,Wunderground v.1.15,2013-09-26 18:35:00,
2013-09-26 11:40:00,65.6,39.3,29.94,NW,312,2.0,2.0,38,0.00,,,0.00,Wunderground v.1.15,2013-09-26 18:40:00,
2013-09-26 11:45:00,66.1,40.4,29.94,NW,305,1.0,8.0,39,0.00,,,0.00,Wunderground v.1.15,2013-09-26 18:45:00,
2013-09-26 11:50:00,67.2,39.3,29.94,WSW,254,1.0,5.0,36,0.00,,,0.00,Wunderground v.1.15,2013-09-26 18:50:00,
2013-09-26 12:00:00,66.6,38.1,29.94,ESE,117,2.0,8.0,35,0.00,,,0.00,Wunderground v.1.15,2013-09-26 19:00:00,
2013-09-26 12:05:00,67.0,39.9,29.94,NW,323,2.0,9.0,37,0.00,,,0.00,Wunderground v.1.15,2013-09-26 19:05:00,
2013-09-26 12:10:00,68.1,38.7,29.94,NW,309,1.0,3.0,34,0.00,,,0.00,Wunderground v.1.15,2013-09-26 19:10:00,
2013-09-26 12:15:00,67.8,39.9,29.94,WSW,250,2.0,10.0,36,0.00,,,0.00,Wunderground v.1.15,2013-09-26 19:15:00,
2013-09-26 12:20:00,67.8,39.1,29.94,West,269,3.0,3.0,35,0.00,,,0.00,Wunderground v.1.15,2013-09-26 19:20:00,
2013-09-26 12:30:00,67.0,38.4,29.94,WNW,296,3.0,3.0,35,0.00,,,0.00,Wunderground v.1.15,2013-09-26 19:30:00,
2013-09-26 12:35:00,66.9,39.1,29.94,WSW,246,4.0,4.0,36,0.00,,,0.00,Wunderground v.1.15,2013-09-26 19:35:00,
2013-09-26 12:40:00,67.7,39.8,29.94,West,280,2.0,2.0,36,0.00,,,0.00,Wunderground v.1.15,2013-09-26 19:40:00,
2013-09-26 12:45:00,68.8,40.7,29.94,SSE,148,1.0,5.0,36,0.00,,,0.00,Wunderground v.1.15,2013-09-26 19:45:00,
2013-09-26 12:55:00,69.3,38.9,29.93,NW,309,2.0,2.0,33,0.00,,,0.00,Wunderground v.1.15,2013-09-26 19:55:00,
2013-09-26 13:00:00,69.0,39.4,29.93,West,274,2.0,7.0,34,0.00,,,0.00,Wunderground v.1.15,2013-09-26 20:00:00,
2013-09-26 13:05:00,69.2,38.9,29.94,West,280,3.0,7.0,33,0.00,,,0.00,Wunderground v.1.15,2013-09-26 20:05:00,
2013-09-26 13:10:00,69.0,37.9,29.93,WNW,294,3.0,12.0,32,0.00,,,0.00,Wunderground v.1.15,2013-09-26 20:10:00,
2013-09-26 13:20:00,69.5,39.1,29.93,NNW,346,2.0,2.0,33,0.00,,,0.00,Wunderground v.1.15,2013-09-26 20:20:00,
2013-09-26 13:25:00,70.2,38.1,29.93,North,355,2.0,6.0,31,0.00,,,0.00,Wunderground v.1.15,2013-09-26 20:25:00,
2013-09-26 13:30:00,70.2,38.1,29.93,SSE,153,2.0,10.0,31,0.00,,,0.00,Wunderground v.1.15,2013-09-26 20:30:00,
2013-09-26 13:35:00,70.2,38.9,29.93,North,5,3.0,10.0,32,0.00,,,0.00,Wunderground v.1.15,2013-09-26 20:35:00,
2013-09-26 13:40:00,70.9,37.9,29.93,WNW,286,2.0,9.0,30,0.00,,,0.00,Wunderground v.1.15,2013-09-26 20:40:00,
2013-09-26 13:50:00,71.0,38.0,29.93,NW,304,3.0,3.0,30,0.00,,,0.00,Wunderground v.1.15,2013-09-26 20:50:00,
2013-09-26 14:00:00,71.8,38.7,29.92,NW,313,2.0,2.0,30,0.00,,,0.00,Wunderground v.1.15,2013-09-26 21:00:00,
2013-09-26 14:05:00,71.7,37.7,29.92,NW,312,2.0,7.0,29,0.00,,,0.00,Wunderground v.1.15,2013-09-26 21:05:00,
2013-09-26 14:15:00,72.2,38.2,29.92,WSW,257,2.0,9.0,29,0.00,,,0.00,Wunderground v.1.15,2013-09-26 21:15:00,
2013-09-26 14:20:00,72.5,37.5,29.92,WSW,238,1.0,7.0,28,0.00,,,0.00,Wunderground v.1.15,2013-09-26 21:20:00,
2013-09-26 14:25:00,71.5,38.4,29.91,West,268,3.0,10.0,30,0.00,,,0.00,Wunderground v.1.15,2013-09-26 21:25:00,
2013-09-26 14:30:00,71.8,39.5,29.91,West,264,3.0,3.0,31,0.00,,,0.00,Wunderground v.1.15,2013-09-26 21:30:00,
2013-09-26 14:40:00,73.1,38.9,29.91,NNW,341,1.0,8.0,29,0.00,,,0.00,Wunderground v.1.15,2013-09-26 21:40:00,
2013-09-26 14:45:00,73.5,39.3,29.91,WSW,243,1.0,8.0,29,0.00,,,0.00,Wunderground v.1.15,2013-09-26 21:45:00,
2013-09-26 14:50:00,73.5,38.4,29.91,WNW,299,1.0,7.0,28,0.00,,,0.00,Wunderground v.1.15,2013-09-26 21:50:00,
2013-09-26 14:55:00,72.9,36.9,29.90,West,263,2.0,7.0,27,0.00,,,0.00,Wunderground v.1.15,2013-09-26 21:55:00,
2013-09-26 15:00:00,72.8,37.8,29.91,SSW,206,2.0,6.0,28,0.00,,,0.00,Wunderground v.1.15,2013-09-26 22:00:00,
2013-09-26 15:10:00,73.5,36.5,29.90,North,349,1.0,3.0,26,0.00,,,0.00,Wunderground v.1.15,2013-09-26 22:10:00,
2013-09-26 15:15:00,73.3,35.3,29.90,WNW,298,2.0,5.0,25,0.00,,,0.00,Wunderground v.1.15,2013-09-26 22:15:00,
2013-09-26 15:20:00,73.1,38.0,29.90,WSW,242,2.0,2.0,28,0.00,,,0.00,Wunderground v.1.15,2013-09-26 22:20:00,
2013-09-26 15:25:00,73.6,38.5,29.90,West,279,2.0,7.0,28,0.00,,,0.00,Wunderground v.1.15,2013-09-26 22:25:00,
2013-09-26 15:30:00,72.8,38.7,29.90,WNW,299,3.0,3.0,29,0.00,,,0.00,Wunderground v.1.15,2013-09-26 22:30:00,
2013-09-26 15:35:00,72.8,38.7,29.90,NW,311,3.0,6.0,29,0.00,,,0.00,Wunderground v.1.15,2013-09-26 22:35:00,
2013-09-26 15:45:00,72.8,38.7,29.90,South,186,2.0,8.0,29,0.00,,,0.00,Wunderground v.1.15,2013-09-26 22:45:00,
2013-09-26 15:50:00,73.0,39.7,29.90,WSW,257,2.0,2.0,30,0.00,,,0.00,Wunderground v.1.15,2013-09-26 22:50:00,
2013-09-26 15:55:00,73.4,40.1,29.90,NW,306,1.0,4.0,30,0.00,,,0.00,Wunderground v.1.15,2013-09-26 22:55:00,
2013-09-26 16:00:00,73.4,40.1,29.90,WSW,249,2.0,2.0,30,0.00,,,0.00,Wunderground v.1.15,2013-09-26 23:00:00,
2013-09-26 16:05:00,73.6,39.4,29.90,WNW,293,2.0,8.0,29,0.00,,,0.00,Wunderground v.1.15,2013-09-26 23:05:00,
2013-09-26 16:10:00,73.8,39.5,29.90,WSW,248,1.0,1.0,29,0.00,,,0.00,Wunderground v.1.15,2013-09-26 23:10:00,
2013-09-26 16:20:00,72.5,38.4,29.90,WSW,252,2.0,8.0,29,0.00,,,0.00,Wunderground v.1.15,2013-09-26 23:20:00,
2013-09-26 16:25:00,72.1,39.8,29.90,West,279,3.0,8.0,31,0.00,,,0.00,Wunderground v.1.15,2013-09-26 23:25:00,
2013-09-26 16:30:00,72.5,39.3,29.90,West,265,2.0,2.0,30,0.00,,,0.00,Wunderground v.1.15,2013-09-26 23:30:00,
2013-09-26 16:35:00,72.9,38.8,29.90,NW,311,1.0,4.0,29,0.00,,,0.00,Wunderground v.1.15,2013-09-26 23:35:00,
2013-09-26 16:45:00,72.8,38.7,29.90,NW,309,1.0,6.0,29,0.00,,,0.00,Wunderground v.1.15,2013-09-26 23:45:00,
2013-09-26 16:50:00,72.0,38.9,29.90,West,281,2.0,7.0,30,0.00,,,0.00,Wunderground v.1.15,2013-09-26 23:50:00,
2013-09-26 16:55:00,71.7,39.4,29.90,NNW,335,2.0,10.0,31,0.00,,,0.00,Wunderground v.1.15,2013-09-26 23:55:00,
2013-09-26 17:00:00,71.6,38.5,29.90,NNW,327,2.0,5.0,30,0.00,,,0.00,Wunderground v.1.15,2013-09-27 00:00:00,
2013-09-26 17:15:00,71.9,38.8,29.90,NW,321,1.0,5.0,30,0.00,,,0.00,Wunderground v.1.15,2013-09-27 00:15:00,
2013-09-26 17:25:00,71.1,38.9,29.90,NW,305,1.0,10.0,31,0.00,,,0.00,Wunderground v.1.15,2013-09-27 00:25:00,
2013-09-26 17:30:00,70.4,39.1,29.90,NNW,345,2.0,11.0,32,0.00,,,0.00,Wunderground v.1.15,2013-09-27 00:30:00,
2013-09-26 17:35:00,69.9,38.7,29.90,NW,307,3.0,11.0,32,0.00,,,0.00,Wunderground v.1.15,2013-09-27 00:35:00,
2013-09-26 17:45:00,69.4,39.0,29.90,NW,319,2.0,7.0,33,0.00,,,0.00,Wunderground v.1.15,2013-09-27 00:45:00,
2013-09-26 17:50:00,69.3,38.9,29.90,NW,309,2.0,6.0,33,0.00,,,0.00,Wunderground v.1.15,2013-09-27 00:50:00,
2013-09-26 17:55:00,69.0,38.7,29.91,NW,313,2.0,6.0,33,0.00,,,0.00,Wunderground v.1.15,2013-09-27 00:55:00,
2013-09-26 18:00:00,68.4,38.2,29.91,NW,309,1.0,4.0,33,0.00,,,0.00,Wunderground v.1.15,2013-09-27 01:00:00,
2013-09-26 18:10:00,67.6,39.0,29.91,WNW,295,2.0,2.0,35,0.00,,,0.00,Wunderground v.1.15,2013-09-27 01:10:00,
2013-09-26 18:15:00,67.3,38.7,29.91,NW,319,1.0,4.0,35,0.00,,,0.00,Wunderground v.1.15,2013-09-27 01:15:00,
2013-09-26 18:20:00,67.0,39.1,29.91,WNW,293,1.0,1.0,36,0.00,,,0.00,Wunderground v.1.15,2013-09-27 01:20:00,
2013-09-26 18:25:00,66.8,39.7,29.92,WSW,257,1.0,4.0,37,0.00,,,0.00,Wunderground v.1.15,2013-09-27 01:25:00,
2013-09-26 18:35:00,66.0,39.7,29.92,WNW,290,0.0,4.0,38,0.00,,,0.00,Wunderground v.1.15,2013-09-27 01:35:00,
2013-09-26 18:40:00,65.7,39.4,29.92,WNW,294,0.0,2.0,38,0.00,,,0.00,Wunderground v.1.15,2013-09-27 01:40:00,
2013-09-26 18:45:00,65.4,39.8,29.92,WNW,294,0.0,2.0,39,0.00,,,0.00,Wunderground v.1.15,2013-09-27 01:45:00,
2013-09-26 18:50:00,65.0,40.1,29.93,WNW,294,0.0,0.0,40,0.00,,,0.00,Wunderground v.1.15,2013-09-27 01:50:00,
2013-09-26 18:55:00,64.7,39.8,29.93,WNW,294,0.0,1.0,40,0.00,,,0.00,Wunderground v.1.15,2013-09-27 01:55:00,
2013-09-26 19:05:00,63.8,40.3,29.93,WNW,298,0.0,1.0,42,0.00,,,0.00,Wunderground v.1.15,2013-09-27 02:05:00,
2013-09-26 19:10:00,63.5,41.2,29.94,WNW,298,0.0,1.0,44,0.00,,,0.00,Wunderground v.1.15,2013-09-27 02:10:00,
2013-09-26 19:15:00,63.1,41.4,29.94,WNW,298,0.0,1.0,45,0.00,,,0.00,Wunderground v.1.15,2013-09-27 02:15:00,
2013-09-26 19:25:00,62.5,42.0,29.94,WNW,297,0.0,1.0,47,0.00,,,0.00,Wunderground v.1.15,2013-09-27 02:25:00,
2013-09-26 19:30:00,62.3,42.3,29.94,WNW,298,0.0,1.0,48,0.00,,,0.00,Wunderground v.1.15,2013-09-27 02:30:00,
2013-09-26 19:40:00,62.0,43.1,29.94,WNW,298,0.0,1.0,50,0.00,,,0.00,Wunderground v.1.15,2013-09-27 02:40:00,
2013-09-26 19:45:00,62.0,43.1,29.94,WNW,298,0.0,1.0,50,0.00,,,0.00,Wunderground v.1.15,2013-09-27 02:45:00,
2013-09-26 19:55:00,61.8,43.0,29.95,NW,305,0.0,4.0,50,0.00,,,0.00,Wunderground v.1.15,2013-09-27 02:55:00,
2013-09-26 20:00:00,61.7,42.9,29.95,NW,309,0.0,2.0,50,0.00,,,0.00,Wunderground v.1.15,2013-09-27 03:00:00,
2013-09-26 20:05:00,61.7,42.9,29.95,NW,318,0.0,3.0,50,0.00,,,0.00,Wunderground v.1.15,2013-09-27 03:05:00,
2013-09-26 20:10:00,61.6,42.8,29.95,NW,318,0.0,2.0,50,0.00,,,0.00,Wunderground v.1.15,2013-09-27 03:10:00,
2013-09-26 20:15:00,61.4,43.1,29.96,NW,317,0.0,2.0,51,0.00,,,0.00,Wunderground v.1.15,2013-09-27 03:15:00,
2013-09-26 20:25:00,60.7,42.5,29.96,NW,317,0.0,1.0,51,0.00,,,0.00,Wunderground v.1.15,2013-09-27 03:25:00,
2013-09-26 20:30:00,60.5,42.3,29.96,NW,317,0.0,1.0,51,0.00,,,0.00,Wunderground v.1.15,2013-09-27 03:30:00,
2013-09-26 20:35:00,60.3,42.6,29.96,NW,317,0.0,1.0,52,0.00,,,0.00,Wunderground v.1.15,2013-09-27 03:35:00,
2013-09-26 20:40:00,60.0,42.3,29.97,NW,316,0.0,2.0,52,0.00,,,0.00,Wunderground v.1.15,2013-09-27 03:40:00,
2013-09-26 20:45:00,60.0,42.3,29.97,NW,316,0.0,2.0,52,0.00,,,0.00,Wunderground v.1.15,2013-09-27 03:45:00,
2013-09-26 20:50:00,59.7,42.5,29.97,NW,316,0.0,1.0,53,0.00,,,0.00,Wunderground v.1.15,2013-09-27 03:50:00,
2013-09-26 21:00:00,58.8,42.2,29.97,NW,316,0.0,1.0,54,0.00,,,0.00,Wunderground v.1.15,2013-09-27 04:00:00,
2013-09-26 21:05:00,58.5,42.4,29.97,WNW,302,0.0,1.0,55,0.00,,,0.00,Wunderground v.1.15,2013-09-27 04:05:00,
2013-09-26 21:10:00,58.2,42.1,29.98,WNW,302,0.0,1.0,55,0.00,,,0.00,Wunderground v.1.15,2013-09-27 04:10:00,
2013-09-26 21:15:00,57.9,42.3,29.98,NW,304,0.0,1.0,56,0.00,,,0.00,Wunderground v.1.15,2013-09-27 04:15:00,
2013-09-26 21:20:00,57.7,42.6,29.98,NW,305,0.0,2.0,57,0.00,,,0.00,Wunderground v.1.15,2013-09-27 04:20:00,
2013-09-26 21:30:00,57.4,42.7,29.98,NW,305,0.0,2.0,58,0.00,,,0.00,Wunderground v.1.15,2013-09-27 04:30:00,
2013-09-26 21:35:00,57.4,42.7,29.99,NW,305,0.0,2.0,58,0.00,,,0.00,Wunderground v.1.15,2013-09-27 04:35:00,
2013-09-26 21:40:00,57.2,42.5,29.99,NW,305,0.0,2.0,58,0.00,,,0.00,Wunderground v.1.15,2013-09-27 04:40:00,
2013-09-26 21:45:00,57.1,42.5,29.99,NW,305,0.0,2.0,58,0.00,,,0.00,Wunderground v.1.15,2013-09-27 04:45:00,
2013-09-26 21:50:00,57.3,42.2,29.99,NW,305,0.0,2.0,57,0.00,,,0.00,Wunderground v.1.15,2013-09-27 04:50:00,
2013-09-26 22:00:00,57.5,41.4,29.99,NW,305,0.0,2.0,55,0.00,,,0.00,Wunderground v.1.15,2013-09-27 05:00:00,
2013-09-26 22:10:00,57.5,41.4,29.99,NW,305,0.0,1.0,55,0.00,,,0.00,Wunderground v.1.15,2013-09-27 05:10:00,
2013-09-26 22:15:00,57.6,41.5,29.99,NW,305,0.0,1.0,55,0.00,,,0.00,Wunderground v.1.15,2013-09-27 05:15:00,
2013-09-26 22:20:00,57.7,41.2,29.99,NW,305,0.0,1.0,54,0.00,,,0.00,Wunderground v.1.15,2013-09-27 05:20:00,
2013-09-26 22:30:00,58.0,41.0,30.00,NW,305,0.0,1.0,53,0.00,,,0.00,Wunderground v.1.15,2013-09-27 05:30:00,
2013-09-26 22:35:00,58.1,40.6,30.00,NW,305,0.0,1.0,52,0.00,,,0.00,Wunderground v.1.15,2013-09-27 05:35:00,
2013-09-26 22:40:00,57.9,40.4,30.00,NW,305,0.0,1.0,52,0.00,,,0.00,Wunderground v.1.15,2013-09-27 05:40:00,
2013-09-26 22:50:00,57.6,40.1,29.99,NW,305,0.0,1.0,52,0.00,,,0.00,Wunderground v.1.15,2013-09-27 05:50:00,
2013-09-26 22:55:00,57.6,40.1,30.00,NW,305,0.0,1.0,52,0.00,,,0.00,Wunderground v.1.15,2013-09-27 05:55:00,
2013-09-26 23:00:00,57.6,40.1,30.00,NW,305,0.0,1.0,52,0.00,,,0.00,Wunderground v.1.15,2013-09-27 06:00:00,
2013-09-26 23:05:00,57.7,39.7,30.00,NW,305,0.0,1.0,51,0.00,,,0.00,Wunderground v.1.15,2013-09-27 06:05:00,
2013-09-26 23:10:00,57.9,39.9,30.00,NW,305,0.0,1.0,51,0.00,,,0.00,Wunderground v.1.15,2013-09-27 06:10:00,
2013-09-26 23:15:00,58.0,39.5,30.00,NW,305,0.0,1.0,50,0.00,,,0.00,Wunderground v.1.15,2013-09-27 06:15:00,
2013-09-26 23:25:00,58.5,39.9,30.00,NW,306,0.0,2.0,50,0.00,,,0.00,Wunderground v.1.15,2013-09-27 06:25:00,
2013-09-26 23:30:00,58.4,39.8,30.00,NW,306,0.0,1.0,50,0.00,,,0.00,Wunderground v.1.15,2013-09-27 06:30:00,
2013-09-26 23:35:00,58.0,40.0,30.00,NW,306,0.0,1.0,51,0.00,,,0.00,Wunderground v.1.15,2013-09-27 06:35:00,
2013-09-26 23:40:00,57.8,40.8,30.00,NW,306,0.0,1.0,53,0.00,,,0.00,Wunderground v.1.15,2013-09-27 06:40:00,
2013-09-26 23:50:00,56.9,40.9,30.01,WNW,302,0.0,1.0,55,0.00,,,0.00,Wunderground v.1.15,2013-09-27 06:50:00,
2013-09-26 23:55:00,56.7,41.2,30.01,WNW,302,0.0,2.0,56,0.00,,,0.00,Wunderground v.1.15,2013-09-27 06:55:00,